[[{"header":{"parameterUnit":"m.s-1","parameterCategory":1,"la1":30.2992,"la2":30.254,"lo1":-89.0895,"lo2":-89.0443,"dy":0.0025,"dx":0.0025,"nx":19,"ny":19,"refTime":"2026-03-21T21:00:00:Z","depth":0,"parameterNumber":2,"parameterNumberName":"U-component_of_WINDS"},"data":[0,0,0,4.5541,4.5547,4.5857,4.5858,4.6248,4.6251,0,0,0,0,0,0,0,0,0,0,0,4.5446,4.5448,4.554,4.5548,4.5857,4.5858,4.6247,4.6252,0,0,0,0,0,0,0,0,0,0,0,4.5444,4.5447,4.5451,4.5549,4.5857,4.5858,4.6247,4.6015,0,0,0,0,0,0,0,0,0,0,4.5716,4.5624,4.5447,4.5451,4.5551,4.5856,4.5858,4.6004,4.603,4.6105,0,4.6171,0,4.6217,4.6277,4.6279,0,0,0,4.5551,4.5603,4.569,4.5451,4.5554,4.5856,4.5718,4.6019,4.6048,4.6139,4.6177,4.6191,4.6224,4.628,4.6282,4.6703,4.6704,0,0,4.5534,4.55,4.567,4.5708,4.5659,4.5708,4.5728,4.6036,4.6075,4.6178,4.6201,4.623,4.6282,4.6285,4.6701,4.6703,0,0,0,4.5483,4.5487,4.5567,4.5692,4.5748,4.5717,4.574,4.6062,4.609,4.6205,4.6235,4.6284,4.6289,4.6699,4.6702,4.6756,0,0,0,4.5473,4.5458,4.5559,4.5541,4.5742,4.5909,4.5758,4.6069,4.6105,4.6233,4.6285,4.6293,4.6697,4.6701,4.675,4.6787,0,0,0,4.5427,4.5452,4.5496,4.5538,4.567,4.5904,4.5951,4.6077,4.6123,4.6279,4.6294,4.6696,4.67,4.6745,4.6779,4.6885,0,0,0,4.5368,4.5541,4.5496,4.5701,4.5667,4.5935,4.5949,4.6152,4.6292,4.6286,4.6698,4.6702,4.6743,4.6774,4.688,4.6967,4.7001,0,0,4.5568,4.5564,4.5688,4.5656,4.5923,4.5891,4.6167,4.633,4.6377,4.6592,4.6602,4.6752,4.6778,4.6884,4.7206,4.7232,0,0,0,4.5739,4.5827,4.5906,4.6036,4.6163,4.6275,4.6398,4.6458,4.6641,4.648,4.6822,4.6838,4.6902,4.6945,4.6968,4.7023,4.6721,4.672,4.672,4.5972,4.6021,4.6228,4.6314,4.6441,4.6565,4.6672,4.6774,4.679,4.6869,4.6932,4.7122,4.7171,4.7188,4.7245,4.6985,4.6985,4.6985,4.6985,4.6267,4.6398,4.6412,4.6617,4.6668,4.6841,4.6967,4.6972,4.714,4.7079,4.7137,4.7063,4.7216,4.7268,4.699,4.6989,4.6989,4.6988,4.6988,4.6423,4.6494,4.6563,4.6755,4.6898,4.698,4.714,4.7182,4.7223,4.7281,4.7351,4.735,4.7353,4.7312,4.7313,4.7313,4.7314,4.7314,4.7315,4.6556,4.6632,4.6761,4.6908,4.6996,4.7118,4.7243,4.7331,4.744,4.7458,4.7459,4.7463,4.7222,4.7159,4.7325,4.7323,4.7322,4.7321,4.732,4.6833,4.6777,4.6976,4.7064,4.7239,4.7376,4.7428,4.7603,4.7683,4.776,4.7753,4.7568,4.7568,4.755,4.7498,4.7743,4.7743,4.7743,4.7743,4.6963,4.6967,4.7178,4.7315,4.7455,4.7521,4.7743,4.7842,4.7935,4.7987,4.7958,4.7893,4.7873,4.7885,4.7861,4.7812,4.8131,4.8132,4.8132,4.7135,4.7154,4.7334,4.7423,4.7563,4.7682,4.7891,4.8048,4.8143,4.8149,4.8027,4.8011,4.7907,4.7871,4.7872,4.7833,4.7746,0,0]},{"header":{"parameterUnit":"m.s-1","parameterCategory":1,"la1":30.2992,"la2":30.254,"lo1":-89.0895,"lo2":-89.0443,"dy":0.0025,"dx":0.0025,"nx":19,"ny":19,"refTime":"2026-03-21T21:00:00:Z","depth":0,"parameterNumber":3,"parameterNumberName":"V-component_of_WINDS"},"data":[0,0,0,2.5869,2.5872,2.6002,2.6002,2.6164,2.6165,0,0,0,0,0,0,0,0,0,0,0,2.583,2.5831,2.5869,2.5872,2.6001,2.6002,2.6164,2.6165,0,0,0,0,0,0,0,0,0,0,0,2.583,2.5831,2.5832,2.5873,2.6001,2.6002,2.6163,2.6067,0,0,0,0,0,0,0,0,0,0,2.5941,2.5905,2.5831,2.5832,2.5874,2.6001,2.6002,2.6062,2.6073,2.6104,0,2.6134,0,2.6152,2.6176,2.6177,0,0,0,2.5872,2.5896,2.5932,2.5833,2.5875,2.6001,2.5943,2.6068,2.608,2.6118,2.6136,2.6142,2.6155,2.6177,2.6178,2.6363,2.6364,0,0,2.5865,2.5853,2.5924,2.594,2.5921,2.5939,2.5947,2.6075,2.6093,2.6136,2.6146,2.6158,2.6178,2.618,2.6362,2.6363,0,0,0,2.5845,2.5848,2.588,2.5933,2.5957,2.5943,2.5952,2.6087,2.6099,2.6148,2.6159,2.6179,2.6181,2.6361,2.6363,2.6393,0,0,0,2.584,2.5836,2.5877,2.5871,2.5954,2.6024,2.5961,2.609,2.6105,2.6159,2.6179,2.6183,2.636,2.6362,2.639,2.641,0,0,0,2.5822,2.5834,2.5852,2.587,2.5925,2.6022,2.6041,2.6094,2.6112,2.6177,2.6183,2.636,2.6362,2.6388,2.6405,2.6454,0,0,0,2.5798,2.5877,2.5853,2.5945,2.5924,2.6041,2.6041,2.6128,2.6187,2.618,2.6361,2.6362,2.6387,2.6403,2.6452,2.6493,2.651,0,0,2.5891,2.5888,2.5943,2.5925,2.6043,2.6022,2.6144,2.6209,2.6226,2.6316,2.6321,2.6391,2.6405,2.6454,2.6606,2.6619,0,0,0,2.5968,2.6008,2.6042,2.6098,2.6151,2.6197,2.6245,2.6269,2.6346,2.627,2.6423,2.6431,2.646,2.6481,2.6492,2.6517,2.6372,2.6371,2.6371,2.608,2.6099,2.6192,2.6226,2.628,2.6329,2.6374,2.6415,2.6417,2.6452,2.6479,2.657,2.6593,2.6601,2.6628,2.6503,2.6503,2.6503,2.6503,2.6217,2.6276,2.6277,2.6368,2.6386,2.6462,2.6512,2.651,2.6582,2.6551,2.6577,2.6541,2.6615,2.6639,2.6506,2.6505,2.6505,2.6505,2.6505,2.6292,2.6324,2.6352,2.6436,2.6498,2.6529,2.6598,2.6612,2.6626,2.6652,2.6682,2.6681,2.6682,2.6665,2.6666,2.6666,2.6666,2.6666,2.6667,2.6358,2.639,2.6448,2.6511,2.6549,2.66,2.665,2.6687,2.6732,2.6736,2.6737,2.6734,2.6619,2.659,2.6672,2.6671,2.667,2.667,2.6669,2.6489,2.6462,2.6551,2.6589,2.6664,2.6724,2.6742,2.6816,2.6849,2.6882,2.6875,2.6788,2.6785,2.6776,2.6752,2.6871,2.6871,2.6871,2.6871,2.6552,2.6553,2.6647,2.6707,2.6767,2.6792,2.6891,2.693,2.6966,2.6987,2.6972,2.6941,2.6932,2.6935,2.6923,2.69,2.7054,2.7055,2.7055,2.6633,2.664,2.6722,2.6759,2.6818,2.6868,2.6961,2.7029,2.7064,2.7062,2.7004,2.6996,2.6946,2.6929,2.6926,2.6907,2.6866,0,0]}]]